Regional Weather Roundup
Issued by NWS

Home | Current Version | Previous Version | Text Only | Print | Product List | Glossary Off
Versions: 1 2 3 4 5 6 7 8 9 10 11 12 13 14 15 16 17 18 19 20 21 22 23 24 25 26 27 28 29 30 31 32 33 34 35 36 37 38 39 40 41 42 43 44 45 46 47 48 49 50

000
ASUS45 KSLC 312210
RWRUT

UTAH REGIONAL WEATHER ROUNDUP
NATIONAL WEATHER SERVICE SALT LAKE CITY UT
300 PM MST SAT JAN 31 2015

UTZ001>011-023>025-312300-

NORTHERN UTAH

CITY           SKY/WX    TMP DP  RH WIND       PRES   REMARKS
BRIGHAM CITY   SUNNY     46  29  50 N14       30.05R
HILL AFB       SUNNY     46  24  40 W7        30.03F
LOGAN          MOSUNNY   41  29  62 VRB3      30.06S
OGDEN          SUNNY     47  31  53 NW8       30.03F
PROVO AIRPORT  MOSUNNY   45  34  65 W9        30.04S
SALT LAKE CITY MOSUNNY   46  28  49 NW10      30.04F
VERNAL         CLOUDY    41  36  82 SW5       29.92S
WENDOVER       SUNNY     46  27  46 E7        30.06S
HEBER CITY     SUNNY     43  32  65 SW9       29.99S
WEST JORDAN    SUNNY     45  30  57 NW16      30.05S

$$

UTZ012>022-026-027-312300-

SOUTHERN/CENTRAL UTAH

CITY           SKY/WX    TMP DP  RH WIND       PRES   REMARKS
BLANDING       CLOUDY    39  36  91 SW3       29.98R
BRYCE CANYON   MOSUNNY   36  31  82 N18       29.97S WCI  26
CEDAR CITY     CLOUDY    40  35  83 N12       30.02R WCI  33
DELTA          CLOUDY    45  35  68 NW7       30.05S
HANKSVILLE     MOSUNNY   45  39  81 E3        29.95R
MILFORD        CLOUDY    41  35  79 NE12      30.05R
MOAB/CYNLANDS  CLOUDY    45  39  79 NE3       29.91S
PRICE          SUNNY     50  32  50 NW13G20   29.91S
ST GEORGE      CLEAR     57  39  51 SW7       29.95S
KANAB            N/A     48  34  57 N13       29.96S

$$

REGIONAL REPORTS     COLORADO/ARIZONA

CITY           SKY/WX    TMP DP  RH WIND       PRES   REMARKS
CRAIG, CO      MOSUNNY   34  27  75 SW10      29.91R WCI  26
GRAND JUNCTION CLOUDY    41  37  86 N5        29.91S
RIFLE          CLOUDY    42  35  76 W9        29.89R
MONTROSE       LGT RAIN  37  35  92 S5        29.93R WCI  33
CORTEZ         CLOUDY    38  37  97 W9        29.90R WCI  31
PAGE, AZ       NOT AVBL
GRAND CANYON   PTSUNNY   45  35  68 VRB7      29.93R
KINGMAN        MOSUNNY   55  44  66 N10       29.90S
FLAGSTAFF      PTSUNNY   41  34  76 E8        29.92S

$$

REGIONAL REPORTS    NEVADA/IDAHO/WYOMING

CITY           SKY/WX    TMP DP  RH WIND       PRES   REMARKS
LAS VEGAS, NV  PTSUNNY   63  39  41 N8        29.89S
ELY            SUNNY     48  17  29 N13       30.04F
ELKO           SUNNY     47  27  45 SW15      30.10F
POCATELLO, ID  PTSUNNY   37  29  72 W12       30.11F WCI  29
BURLEY         SUNNY     43  29  57 W13G21    30.10S
EVANSTON, WY   SUNNY     40  27  59 SW14      29.98F WCI  32
ROCK SPRINGS   SUNNY     40  27  59 W24       29.90  WCI  29
KEMMERER       SUNNY     36  23  60 NW15      29.96R WCI  26

$$



USA.gov is the U.S. government's official web portal to all federal, state and local government web resources and services.